Location: Stockholm
(59.3330°N, 18.0500°E)
Time: 16:11:10
(UTC+01:00)

RS-15 - Visible Passes

Search period start: 20 March 2023 00:00
Search period end: 30 March 2023 01:00
Orbit: 1883 x 2161 km, 64.8° (Epoch: 19 March)

Date Brightness Start Highest point End Pass type
(mag) Time Alt. Az. Time Alt. Az. Time Alt. Az.
20 Mar 8.0 00:25:34 10° WNW 00:37:53 88° SW 00:49:32 10° SE visible
20 Mar 8.3 02:38:20 10° NW 02:49:17 44° WSW 02:59:45 10° S visible
20 Mar 9.2 04:53:14 10° WNW 04:58:02 13° W 05:02:46 10° WSW visible
20 Mar 8.3 19:21:52 10° WSW 19:34:19 86° NNW 19:46:31 10° ENE visible
20 Mar 8.4 21:35:40 10° W 21:48:02 68° N 21:59:55 10° E visible
20 Mar 8.0 23:49:23 10° WNW 00:01:44 85° NNE 00:13:27 10° ESE visible
21 Mar 8.1 02:02:12 10° NW 02:13:37 52° WSW 02:24:29 10° S visible
21 Mar 9.0 04:15:59 10° NW 04:22:55 18° W 04:29:40 10° SW visible
21 Mar 8.3 18:45:45 10° SW 18:58:11 87° SE 19:10:22 10° ENE visible
21 Mar 8.4 20:59:16 10° W 21:11:39 69° N 21:23:36 10° ENE visible
21 Mar 8.1 23:13:09 10° WNW 23:25:31 79° NNE 23:37:17 10° ESE visible
22 Mar 8.0 01:26:05 10° NW 01:37:51 60° SW 01:45:30 24° SSE visible
22 Mar 8.8 03:39:19 10° NW 03:47:41 23° W 03:53:02 16° SW visible
22 Mar 8.4 20:22:53 10° W 20:35:17 71° NNW 20:47:18 10° ENE visible
22 Mar 8.2 22:36:53 10° WNW 22:49:14 74° NNE 23:01:02 10° ESE visible
23 Mar 8.0 00:49:58 10° NW 01:01:59 69° SW 01:08:52 29° SSE visible
23 Mar 8.7 03:02:54 10° NW 03:12:20 29° WSW 03:16:29 23° SW visible
23 Mar 8.4 19:46:31 10° WSW 19:58:57 74° NNW 20:11:02 10° ENE visible
23 Mar 8.3 22:00:33 10° WNW 22:12:55 71° NNE 22:24:43 10° E visible
24 Mar 7.9 00:13:50 10° NW 00:26:01 78° SW 00:32:55 30° SE visible
24 Mar 8.5 02:26:39 10° NW 02:36:53 35° WSW 02:40:34 29° SW visible
24 Mar 8.4 19:10:13 10° WSW 19:22:40 79° NNW 19:34:48 10° ENE visible
24 Mar 8.4 21:24:12 10° WNW 21:36:34 69° N 21:48:24 10° E visible
24 Mar 8.0 23:37:42 10° WNW 23:49:59 87° SW 23:57:16 29° SE visible
25 Mar 8.3 01:50:27 10° NW 02:01:19 42° WSW 02:04:57 35° SSW visible
25 Mar 9.2 04:05:37 10° WNW 04:09:59 13° W 04:12:37 12° W visible
25 Mar 8.4 18:33:59 10° WSW 18:46:27 85° NNW 18:58:37 10° ENE visible
25 Mar 8.4 20:47:49 10° W 21:00:10 68° N 21:12:04 10° E visible
25 Mar 8.0 23:01:30 10° WNW 23:13:50 86° NNE 23:21:47 25° ESE visible
26 Mar 8.2 01:14:19 10° NW 01:25:40 50° WSW 01:29:29 39° SSW visible
26 Mar 9.1 04:28:13 10° NW 04:34:52 17° W 04:37:10 16° WSW visible
26 Mar 8.4 21:11:25 10° W 21:23:48 69° N 21:35:44 10° ENE visible
26 Mar 8.1 23:25:17 10° WNW 23:37:38 80° NNE 23:46:27 21° ESE visible
27 Mar 8.1 01:38:12 10° NW 01:49:54 59° SW 01:54:09 41° S visible
27 Mar 8.9 03:51:30 10° NW 03:59:39 22° W 04:01:51 21° WSW visible
27 Mar 8.5 20:35:01 10° W 20:47:26 71° NNW 20:59:25 10° ENE visible
27 Mar 8.2 22:49:00 10° WNW 23:01:22 75° NNE 23:11:12 17° ESE visible
28 Mar 8.0 01:02:05 10° NW 01:14:03 68° SW 01:18:54 41° SSE visible
28 Mar 8.7 03:15:03 10° NW 03:24:19 28° WSW 03:26:36 26° WSW visible
28 Mar 8.5 19:58:40 10° WSW 20:11:05 74° NNW 20:23:09 10° ENE visible
28 Mar 8.3 22:12:42 10° WNW 22:25:03 71° NNE 22:36:00 13° E visible
29 Mar 8.0 00:25:57 10° NW 00:38:06 77° SW 00:43:43 38° SSE visible
29 Mar 8.5 02:38:46 10° NW 02:48:53 34° WSW 02:51:26 31° SW visible
29 Mar 8.4 21:36:21 10° WNW 21:48:42 69° N 22:00:32 10° E visible
29 Mar 8.0 23:49:48 10° NW 00:02:04 85° SW 00:08:35 33° SE visible
